Time,TemperatureF,DewpointF,PressureIn,WindDirection,WindDirectionDegrees,WindSpeedMPH,WindSpeedGustMPH,Humidity,HourlyPrecipIn,Conditions,Clouds,dailyrainin,SoftwareType,DateUTC
2013-03-16 00:00:00,40.8,27.6,29.79,North,349,7.0,8.0,59,0.00,,---,0.00,VWS V14.00,2013-03-16 04:00:00,
2013-03-16 00:02:00,40.8,27.6,29.79,NNW,328,5.0,5.0,59,0.00,,---,0.00,VWS V14.00,2013-03-16 04:02:00,
2013-03-16 00:07:00,40.7,27.1,29.79,NNW,329,2.0,7.0,58,0.00,,---,0.00,VWS V14.00,2013-03-16 04:07:00,
2013-03-16 00:12:00,40.6,27.0,29.79,North,351,6.0,7.0,58,0.00,,---,0.00,VWS V14.00,2013-03-16 04:12:00,
2013-03-16 00:17:00,40.4,27.2,29.79,NNW,345,5.0,7.0,59,0.00,,---,0.00,VWS V14.00,2013-03-16 04:17:00,
2013-03-16 00:22:00,40.2,27.0,29.79,NW,325,8.0,9.0,59,0.00,,---,0.00,VWS V14.00,2013-03-16 04:22:00,
2013-03-16 00:27:00,40.2,27.0,29.79,North,355,4.0,5.0,59,0.00,,---,0.00,VWS V14.00,2013-03-16 04:27:00,
2013-03-16 00:32:00,40.1,26.9,29.79,North,355,2.0,5.0,59,0.00,,---,0.00,VWS V14.00,2013-03-16 04:32:00,
2013-03-16 00:37:00,39.9,26.8,29.79,North,355,2.0,5.0,59,0.00,,---,0.00,VWS V14.00,2013-03-16 04:37:00,
2013-03-16 00:42:00,39.7,26.6,29.79,NNW,327,6.0,9.0,59,0.00,,---,0.00,VWS V14.00,2013-03-16 04:42:00,
2013-03-16 00:47:00,39.6,26.5,29.79,NNW,327,4.0,9.0,59,0.00,,---,0.00,VWS V14.00,2013-03-16 04:47:00,
2013-03-16 00:52:00,39.5,26.0,29.79,NNW,327,2.0,9.0,58,0.00,,---,0.00,VWS V14.00,2013-03-16 04:52:00,
2013-03-16 00:57:00,39.4,25.9,29.79,NW,307,5.0,7.0,58,0.00,,---,0.00,VWS V14.00,2013-03-16 04:57:00,
2013-03-16 01:02:00,39.4,25.9,29.79,NW,323,5.0,7.0,58,0.00,,---,0.00,VWS V14.00,2013-03-16 05:02:00,
2013-03-16 01:07:00,39.2,25.7,29.79,NW,323,4.0,7.0,58,0.00,,---,0.00,VWS V14.00,2013-03-16 05:07:00,
2013-03-16 01:12:00,39.0,25.5,29.79,NNW,331,7.0,12.0,58,0.00,,---,0.00,VWS V14.00,2013-03-16 05:12:00,
2013-03-16 01:17:00,39.2,25.3,29.79,NNW,336,5.0,13.0,57,0.00,,---,0.00,VWS V14.00,2013-03-16 05:17:00,
2013-03-16 01:22:00,39.0,25.5,29.79,NNW,336,2.0,13.0,58,0.00,,---,0.00,VWS V14.00,2013-03-16 05:22:00,
2013-03-16 01:27:00,38.9,25.4,29.79,NNW,336,8.0,8.0,58,0.00,,---,0.00,VWS V14.00,2013-03-16 05:27:00,
2013-03-16 01:33:00,38.9,25.0,29.79,NNW,333,7.0,9.0,57,0.00,,---,0.00,VWS V14.00,2013-03-16 05:33:00,
2013-03-16 01:38:00,38.9,25.0,29.79,NNW,346,2.0,9.0,57,0.00,,---,0.00,VWS V14.00,2013-03-16 05:38:00,
2013-03-16 01:43:00,38.7,24.8,29.79,NNW,346,5.0,9.0,57,0.00,,---,0.00,VWS V14.00,2013-03-16 05:43:00,
2013-03-16 01:48:00,38.7,24.4,29.79,NNW,346,4.0,9.0,56,0.00,,---,0.00,VWS V14.00,2013-03-16 05:48:00,
2013-03-16 01:53:00,38.7,24.4,29.79,NNW,346,2.0,9.0,56,0.00,,---,0.00,VWS V14.00,2013-03-16 05:53:00,
2013-03-16 01:58:00,38.6,24.7,29.79,NNW,328,2.0,7.0,57,0.00,,---,0.00,VWS V14.00,2013-03-16 05:58:00,
2013-03-16 02:03:00,38.5,24.6,29.79,NNW,328,1.0,7.0,57,0.00,,---,0.00,VWS V14.00,2013-03-16 06:03:00,
2013-03-16 02:08:00,38.2,24.3,29.79,NNW,328,1.0,7.0,57,0.00,,---,0.00,VWS V14.00,2013-03-16 06:08:00,
2013-03-16 02:13:00,38.1,24.2,29.79,NNW,328,0.0,7.0,57,0.00,,---,0.00,VWS V14.00,2013-03-16 06:13:00,
2013-03-16 02:18:00,38.0,24.5,29.79,NNW,328,2.0,7.0,58,0.00,,---,0.00,VWS V14.00,2013-03-16 06:18:00,
2013-03-16 02:23:00,37.7,24.7,29.79,NNW,328,4.0,7.0,59,0.00,,---,0.00,VWS V14.00,2013-03-16 06:23:00,
2013-03-16 02:28:00,37.4,24.4,29.79,NNW,327,7.0,8.0,59,0.00,,---,0.00,VWS V14.00,2013-03-16 06:28:00,
2013-03-16 02:33:00,37.8,24.4,29.79,NNW,333,4.0,8.0,58,0.00,,---,0.00,VWS V14.00,2013-03-16 06:33:00,
2013-03-16 02:38:00,37.9,24.0,29.79,NNW,348,5.0,9.0,57,0.00,,---,0.00,VWS V14.00,2013-03-16 06:38:00,
2013-03-16 02:43:00,37.9,24.0,29.79,North,5,1.0,9.0,57,0.00,,---,0.00,VWS V14.00,2013-03-16 06:43:00,
2013-03-16 02:48:00,37.8,24.0,29.79,North,5,0.0,9.0,57,0.00,,---,0.00,VWS V14.00,2013-03-16 06:48:00,
2013-03-16 02:53:00,37.6,23.8,29.80,North,5,0.0,9.0,57,0.00,,---,0.00,VWS V14.00,2013-03-16 06:53:00,
2013-03-16 02:58:00,37.4,23.6,29.80,North,5,0.0,0.0,57,0.00,,---,0.00,VWS V14.00,2013-03-16 06:58:00,
2013-03-16 03:03:00,37.3,23.9,29.80,North,5,0.0,2.0,58,0.00,,---,0.00,VWS V14.00,2013-03-16 07:03:00,
2013-03-16 03:08:00,37.1,23.7,29.80,North,5,0.0,2.0,58,0.00,,---,0.00,VWS V14.00,2013-03-16 07:08:00,
2013-03-16 03:13:00,37.0,23.6,29.81,North,5,0.0,2.0,58,0.00,,---,0.00,VWS V14.00,2013-03-16 07:13:00,
2013-03-16 03:18:00,36.8,24.2,29.80,North,5,0.0,2.0,60,0.00,,---,0.00,VWS V14.00,2013-03-16 07:18:00,
2013-03-16 03:23:00,36.6,24.0,29.81,North,5,0.0,2.0,60,0.00,,---,0.00,VWS V14.00,2013-03-16 07:23:00,
2013-03-16 03:28:00,36.4,25.0,29.80,North,5,0.0,0.0,63,0.00,,---,0.00,VWS V14.00,2013-03-16 07:28:00,
2013-03-16 03:33:00,36.1,25.1,29.81,North,5,0.0,0.0,64,0.00,,---,0.00,VWS V14.00,2013-03-16 07:33:00,
2013-03-16 03:38:00,35.8,25.2,29.81,North,5,2.0,3.0,65,0.00,,---,0.00,VWS V14.00,2013-03-16 07:38:00,
2013-03-16 03:43:00,35.6,25.4,29.81,North,5,3.0,3.0,66,0.00,,---,0.00,VWS V14.00,2013-03-16 07:43:00,
2013-03-16 03:48:00,35.7,24.4,29.80,NNW,338,4.0,7.0,63,0.00,,---,0.00,VWS V14.00,2013-03-16 07:48:00,
2013-03-16 03:53:00,36.2,24.1,29.80,North,360,9.0,9.0,61,0.00,,---,0.00,VWS V14.00,2013-03-16 07:53:00,
2013-03-16 03:58:00,36.8,24.2,29.80,North,355,4.0,7.0,60,0.00,,---,0.00,VWS V14.00,2013-03-16 07:58:00,
2013-03-16 04:03:00,37.1,24.1,29.80,North,355,4.0,7.0,59,0.00,,---,0.00,VWS V14.00,2013-03-16 08:03:00,
2013-03-16 04:08:00,37.1,24.1,29.81,North,355,4.0,7.0,59,0.00,,---,0.00,VWS V14.00,2013-03-16 08:08:00,
2013-03-16 04:13:00,37.1,24.1,29.81,North,355,0.0,7.0,59,0.00,,---,0.00,VWS V14.00,2013-03-16 08:13:00,
2013-03-16 04:18:00,37.0,24.0,29.81,North,355,2.0,7.0,59,0.00,,---,0.00,VWS V14.00,2013-03-16 08:18:00,
2013-03-16 04:24:00,36.9,24.3,29.81,North,355,2.0,7.0,60,0.00,,---,0.00,VWS V14.00,2013-03-16 08:24:00,
2013-03-16 04:29:00,36.6,23.6,29.81,North,355,1.0,4.0,59,0.00,,---,0.00,VWS V14.00,2013-03-16 08:29:00,
2013-03-16 04:33:00,36.5,23.1,29.81,NNW,342,4.0,10.0,58,0.00,,---,0.00,VWS V14.00,2013-03-16 08:33:00,
2013-03-16 04:39:00,36.5,23.1,29.82,North,355,4.0,10.0,58,0.00,,---,0.00,VWS V14.00,2013-03-16 08:39:00,
2013-03-16 04:44:00,36.5,22.7,29.82,NNW,336,8.0,13.0,57,0.00,,---,0.00,VWS V14.00,2013-03-16 08:44:00,
2013-03-16 04:49:00,36.6,22.4,29.82,NNW,348,6.0,13.0,56,0.00,,---,0.00,VWS V14.00,2013-03-16 08:49:00,
2013-03-16 04:54:00,36.6,22.0,29.82,NW,321,8.0,13.0,55,0.00,,---,0.00,VWS V14.00,2013-03-16 08:54:00,
2013-03-16 04:59:00,36.5,21.9,29.82,North,355,4.0,7.0,55,0.00,,---,0.00,VWS V14.00,2013-03-16 08:59:00,
2013-03-16 05:04:00,36.3,21.7,29.82,NNW,343,5.0,7.0,55,0.00,,---,0.00,VWS V14.00,2013-03-16 09:04:00,
2013-03-16 05:09:00,36.1,21.5,29.82,NNW,338,7.0,12.0,55,0.00,,---,0.00,VWS V14.00,2013-03-16 09:09:00,
2013-03-16 05:14:00,36.1,21.1,29.82,NNW,344,6.0,12.0,54,0.00,,---,0.00,VWS V14.00,2013-03-16 09:14:00,
2013-03-16 05:19:00,36.1,20.6,29.82,NNW,337,5.0,12.0,53,0.00,,---,0.00,VWS V14.00,2013-03-16 09:19:00,
2013-03-16 05:24:00,36.1,21.1,29.83,NNW,340,2.0,12.0,54,0.00,,---,0.00,VWS V14.00,2013-03-16 09:24:00,
2013-03-16 05:29:00,36.0,21.0,29.83,NNW,327,2.0,6.0,54,0.00,,---,0.00,VWS V14.00,2013-03-16 09:29:00,
2013-03-16 05:34:00,36.0,21.0,29.83,NNW,329,1.0,7.0,54,0.00,,---,0.00,VWS V14.00,2013-03-16 09:34:00,
2013-03-16 05:39:00,35.8,20.8,29.83,NNW,329,4.0,7.0,54,0.00,,---,0.00,VWS V14.00,2013-03-16 09:39:00,
2013-03-16 05:44:00,35.7,20.7,29.83,NNW,329,2.0,7.0,54,0.00,,---,0.00,VWS V14.00,2013-03-16 09:44:00,
2013-03-16 05:49:00,35.6,20.6,29.83,NNW,329,2.0,7.0,54,0.00,,---,0.00,VWS V14.00,2013-03-16 09:49:00,
2013-03-16 05:54:00,35.5,22.6,29.83,NNW,329,1.0,7.0,59,0.00,,---,0.00,VWS V14.00,2013-03-16 09:54:00,
2013-03-16 05:59:00,35.3,21.2,29.84,NNW,329,1.0,4.0,56,0.00,,---,0.00,VWS V14.00,2013-03-16 09:59:00,
2013-03-16 06:04:00,35.2,20.7,29.83,NNW,329,0.0,4.0,55,0.00,,---,0.00,VWS V14.00,2013-03-16 10:04:00,
2013-03-16 06:09:00,35.1,21.0,29.84,NNW,329,2.0,4.0,56,0.00,,---,0.00,VWS V14.00,2013-03-16 10:09:00,
2013-03-16 06:14:00,35.0,20.9,29.84,NNW,329,2.0,4.0,56,0.00,,---,0.00,VWS V14.00,2013-03-16 10:14:00,
2013-03-16 06:19:00,34.9,21.2,29.84,NNW,329,2.0,4.0,57,0.00,,---,0.00,VWS V14.00,2013-03-16 10:19:00,
2013-03-16 06:24:00,34.7,21.0,29.84,NNW,329,1.0,4.0,57,0.00,,---,0.00,VWS V14.00,2013-03-16 10:24:00,
2013-03-16 06:29:00,34.6,21.4,29.84,NNW,329,0.0,2.0,58,0.00,,---,0.00,VWS V14.00,2013-03-16 10:29:00,
2013-03-16 06:34:00,34.4,21.2,29.84,NNW,329,0.0,2.0,58,0.00,,---,0.00,VWS V14.00,2013-03-16 10:34:00,
2013-03-16 06:39:00,34.3,21.5,29.84,NNW,329,0.0,2.0,59,0.00,,---,0.00,VWS V14.00,2013-03-16 10:39:00,
2013-03-16 06:44:00,34.0,22.0,29.84,NNW,329,0.0,2.0,61,0.00,,---,0.00,VWS V14.00,2013-03-16 10:44:00,
2013-03-16 06:49:00,33.8,21.0,29.84,NNW,329,0.0,2.0,59,0.00,,---,0.00,VWS V14.00,2013-03-16 10:49:00,
2013-03-16 06:54:00,33.7,21.3,29.84,NNW,329,0.0,2.0,60,0.00,,---,0.00,VWS V14.00,2013-03-16 10:54:00,
2013-03-16 06:59:00,33.5,21.5,29.84,NNW,329,0.0,0.0,61,0.00,,---,0.00,VWS V14.00,2013-03-16 10:59:00,
2013-03-16 07:04:00,33.3,21.3,29.84,NNW,329,0.0,0.0,61,0.00,,---,0.00,VWS V14.00,2013-03-16 11:04:00,
2013-03-16 07:09:00,33.1,22.3,29.84,NNW,329,0.0,0.0,64,0.00,,---,0.00,VWS V14.00,2013-03-16 11:09:00,
2013-03-16 07:14:00,32.9,22.1,29.84,NNW,329,0.0,0.0,64,0.00,,---,0.00,VWS V14.00,2013-03-16 11:14:00,
2013-03-16 07:19:00,32.8,22.0,29.84,NNW,329,0.0,0.0,64,0.00,,---,0.00,VWS V14.00,2013-03-16 11:19:00,
2013-03-16 07:24:00,32.6,21.8,29.84,NNW,329,0.0,0.0,64,0.00,,---,0.00,VWS V14.00,2013-03-16 11:24:00,
2013-03-16 07:29:00,32.4,21.6,29.84,NNW,329,0.0,0.0,64,0.00,,---,0.00,VWS V14.00,2013-03-16 11:29:00,
2013-03-16 07:34:00,32.3,21.9,29.85,NNW,329,0.0,0.0,65,0.00,,---,0.00,VWS V14.00,2013-03-16 11:34:00,
2013-03-16 07:39:00,32.2,22.1,29.85,NNW,329,0.0,0.0,66,0.00,,---,0.00,VWS V14.00,2013-03-16 11:39:00,
2013-03-16 07:44:00,32.1,22.0,29.85,NNW,329,0.0,0.0,66,0.00,,---,0.00,VWS V14.00,2013-03-16 11:44:00,
2013-03-16 07:49:00,32.1,22.4,29.85,NNW,329,0.0,0.0,67,0.00,,---,0.00,VWS V14.00,2013-03-16 11:49:00,
2013-03-16 07:54:00,32.0,22.3,29.86,NNW,329,0.0,0.0,67,0.00,,---,0.00,VWS V14.00,2013-03-16 11:54:00,
2013-03-16 07:59:00,32.0,22.6,29.86,NNW,329,0.0,0.0,68,0.00,,---,0.00,VWS V14.00,2013-03-16 11:59:00,
2013-03-16 08:04:00,32.0,22.6,29.86,NNW,329,0.0,0.0,68,0.00,,---,0.00,VWS V14.00,2013-03-16 12:04:00,
2013-03-16 08:09:00,32.2,22.5,29.86,NNW,329,0.0,0.0,67,0.00,,---,0.00,VWS V14.00,2013-03-16 12:09:00,
2013-03-16 08:14:00,32.4,24.1,29.86,NNW,329,0.0,0.0,71,0.00,,---,0.00,VWS V14.00,2013-03-16 12:14:00,
2013-03-16 08:19:00,32.6,23.6,29.87,NNW,329,0.0,0.0,69,0.00,,---,0.00,VWS V14.00,2013-03-16 12:19:00,
2013-03-16 08:24:00,32.8,23.1,29.87,NNW,329,0.0,0.0,67,0.00,,---,0.00,VWS V14.00,2013-03-16 12:24:00,
2013-03-16 08:29:00,33.1,22.3,29.87,NNW,329,1.0,2.0,64,0.00,,---,0.00,VWS V14.00,2013-03-16 12:29:00,
2013-03-16 08:34:00,33.5,22.3,29.87,NNW,329,0.0,2.0,63,0.00,,---,0.00,VWS V14.00,2013-03-16 12:34:00,
2013-03-16 08:40:00,34.0,21.6,29.87,NNW,329,4.0,5.0,60,0.00,,---,0.00,VWS V14.00,2013-03-16 12:40:00,
2013-03-16 08:45:00,34.4,21.6,29.87,NNW,329,1.0,5.0,59,0.00,,---,0.00,VWS V14.00,2013-03-16 12:45:00,
2013-03-16 08:50:00,34.6,21.8,29.87,NNW,329,0.0,5.0,59,0.00,,---,0.00,VWS V14.00,2013-03-16 12:50:00,
2013-03-16 08:55:00,34.8,21.1,29.87,NE,49,2.0,5.0,57,0.00,,---,0.00,VWS V14.00,2013-03-16 12:55:00,
2013-03-16 09:00:00,34.8,21.5,29.87,NE,38,1.0,3.0,58,0.00,,---,0.00,VWS V14.00,2013-03-16 13:00:00,
2013-03-16 09:05:00,34.9,21.6,29.87,NE,38,0.0,3.0,58,0.00,,---,0.00,VWS V14.00,2013-03-16 13:05:00,
2013-03-16 09:10:00,35.0,21.3,29.87,NE,49,2.0,3.0,57,0.00,,---,0.00,VWS V14.00,2013-03-16 13:10:00,
2013-03-16 09:15:00,35.0,21.7,29.87,NE,50,2.0,3.0,58,0.00,,---,0.00,VWS V14.00,2013-03-16 13:15:00,
2013-03-16 09:20:00,35.1,21.8,29.87,NE,50,2.0,4.0,58,0.00,,---,0.00,VWS V14.00,2013-03-16 13:20:00,
2013-03-16 09:25:00,35.3,22.4,29.86,ENE,59,0.0,5.0,59,0.00,,---,0.00,VWS V14.00,2013-03-16 13:25:00,
2013-03-16 09:30:00,35.5,22.2,29.86,ENE,63,2.0,7.0,58,0.00,,---,0.00,VWS V14.00,2013-03-16 13:30:00,
2013-03-16 09:35:00,35.5,22.2,29.86,ENE,73,2.0,7.0,58,0.00,,---,0.00,VWS V14.00,2013-03-16 13:35:00,
2013-03-16 09:40:00,35.3,22.4,29.86,ENE,74,2.0,7.0,59,0.00,,---,0.00,VWS V14.00,2013-03-16 13:40:00,
2013-03-16 09:45:00,35.2,22.3,29.85,ENE,66,2.0,7.0,59,0.00,,---,0.00,VWS V14.00,2013-03-16 13:45:00,
2013-03-16 09:50:00,35.1,22.2,29.86,ESE,103,1.0,7.0,59,0.00,,---,0.00,VWS V14.00,2013-03-16 13:50:00,
2013-03-16 09:55:00,35.1,22.6,29.86,East,82,0.0,7.0,60,0.00,,---,0.00,VWS V14.00,2013-03-16 13:55:00,
2013-03-16 10:00:00,35.0,22.5,29.86,NE,49,2.0,3.0,60,0.00,,---,0.00,VWS V14.00,2013-03-16 14:00:00,
2013-03-16 10:05:00,35.0,22.5,29.86,East,98,1.0,5.0,60,0.00,,---,0.00,VWS V14.00,2013-03-16 14:05:00,
2013-03-16 10:10:00,35.1,22.6,29.86,NE,49,1.0,8.0,60,0.00,,---,0.00,VWS V14.00,2013-03-16 14:10:00,
2013-03-16 10:15:00,35.2,22.7,29.86,NNE,22,0.0,8.0,60,0.00,,---,0.00,VWS V14.00,2013-03-16 14:15:00,
2013-03-16 10:20:00,35.3,23.2,29.86,NNE,24,2.0,8.0,61,0.00,,---,0.00,VWS V14.00,2013-03-16 14:20:00,
2013-03-16 10:25:00,35.5,23.4,29.86,NE,49,3.0,8.0,61,0.00,,---,0.00,VWS V14.00,2013-03-16 14:25:00,
2013-03-16 10:30:00,35.8,22.9,29.86,ENE,64,4.0,4.0,59,0.00,,---,0.00,VWS V14.00,2013-03-16 14:30:00,
2013-03-16 10:35:00,35.8,22.5,29.86,ENE,76,2.0,6.0,58,0.00,,---,0.00,VWS V14.00,2013-03-16 14:35:00,
2013-03-16 10:40:00,35.9,23.0,29.85,East,100,2.0,6.0,59,0.00,,---,0.00,VWS V14.00,2013-03-16 14:40:00,
2013-03-16 10:45:00,36.0,22.7,29.85,East,85,0.0,6.0,58,0.00,,---,0.00,VWS V14.00,2013-03-16 14:45:00,
2013-03-16 10:50:00,36.2,23.3,29.85,ESE,106,2.0,6.0,59,0.00,,---,0.00,VWS V14.00,2013-03-16 14:50:00,
2013-03-16 10:55:00,36.4,23.0,29.85,NE,49,3.0,7.0,58,0.00,,---,0.00,VWS V14.00,2013-03-16 14:55:00,
2013-03-16 11:00:00,36.1,23.2,29.85,NE,48,0.0,4.0,59,0.00,,---,0.00,VWS V14.00,2013-03-16 15:00:00,
2013-03-16 11:05:00,36.0,22.7,29.85,NE,49,2.0,4.0,58,0.00,,---,0.00,VWS V14.00,2013-03-16 15:05:00,
2013-03-16 11:10:00,36.0,22.7,29.85,NE,49,0.0,4.0,58,0.00,,---,0.00,VWS V14.00,2013-03-16 15:10:00,
2013-03-16 11:15:00,36.0,22.7,29.85,ESE,114,2.0,6.0,58,0.00,,---,0.00,VWS V14.00,2013-03-16 15:15:00,
2013-03-16 11:20:00,36.1,22.8,29.85,ESE,103,0.0,6.0,58,0.00,,---,0.00,VWS V14.00,2013-03-16 15:20:00,
2013-03-16 11:25:00,36.1,23.2,29.85,North,355,4.0,6.0,59,0.00,,---,0.00,VWS V14.00,2013-03-16 15:25:00,
2013-03-16 11:30:00,35.9,22.6,29.85,ENE,67,2.0,5.0,58,0.00,,---,0.00,VWS V14.00,2013-03-16 15:30:00,
2013-03-16 11:35:00,36.1,21.9,29.85,ENE,67,1.0,5.0,56,0.00,,---,0.00,VWS V14.00,2013-03-16 15:35:00,
2013-03-16 11:40:00,36.1,21.9,29.85,ENE,67,0.0,5.0,56,0.00,,---,0.00,VWS V14.00,2013-03-16 15:40:00,
2013-03-16 11:45:00,36.2,22.9,29.85,SE,126,6.0,6.0,58,0.00,,---,0.00,VWS V14.00,2013-03-16 15:45:00,
2013-03-16 11:51:00,36.7,22.5,29.85,SE,128,5.0,6.0,56,0.00,,---,0.00,VWS V14.00,2013-03-16 15:51:00,
2013-03-16 11:56:00,37.4,23.1,29.85,SE,143,0.0,7.0,56,0.00,,---,0.00,VWS V14.00,2013-03-16 15:56:00,
2013-03-16 12:01:00,37.8,23.1,29.84,SSE,150,4.0,5.0,55,0.00,,---,0.00,VWS V14.00,2013-03-16 16:01:00,
2013-03-16 12:06:00,38.0,23.3,29.84,South,182,2.0,6.0,55,0.00,,---,0.00,VWS V14.00,2013-03-16 16:06:00,
2013-03-16 12:11:00,38.4,23.2,29.83,ESE,107,1.0,6.0,54,0.00,,---,0.00,VWS V14.00,2013-03-16 16:11:00,
2013-03-16 12:16:00,38.7,23.5,29.83,SE,144,2.0,6.0,54,0.00,,---,0.00,VWS V14.00,2013-03-16 16:16:00,
2013-03-16 12:21:00,38.9,23.7,29.83,SE,142,2.0,6.0,54,0.00,,---,0.00,VWS V14.00,2013-03-16 16:21:00,
2013-03-16 12:26:00,39.0,23.8,29.83,SSW,203,0.0,0.0,54,0.00,,---,0.00,VWS V14.00,2013-03-16 16:26:00,
2013-03-16 12:31:00,38.8,24.5,29.83,SSW,203,0.0,0.0,56,0.00,,---,0.00,VWS V14.00,2013-03-16 16:31:00,
2013-03-16 12:36:00,38.9,23.2,29.83,SE,143,2.0,6.0,53,0.00,,---,0.00,VWS V14.00,2013-03-16 16:36:00,
2013-03-16 12:41:00,39.1,23.4,29.82,ESE,113,0.0,8.0,53,0.00,,---,0.00,VWS V14.00,2013-03-16 16:41:00,
2013-03-16 12:46:00,39.3,23.2,29.83,SSE,161,2.0,8.0,52,0.00,,---,0.00,VWS V14.00,2013-03-16 16:46:00,
2013-03-16 12:51:00,39.4,22.8,29.83,East,86,0.0,8.0,51,0.00,,---,0.00,VWS V14.00,2013-03-16 16:51:00,
2013-03-16 12:56:00,39.0,23.3,29.83,SSW,200,1.0,1.0,53,0.00,,---,0.00,VWS V14.00,2013-03-16 16:56:00,
2013-03-16 13:02:00,38.6,23.8,29.83,SSE,164,0.0,5.0,55,0.00,,---,0.00,VWS V14.00,2013-03-16 17:02:00,
2013-03-16 13:07:00,38.3,23.1,29.83,ESE,108,0.0,5.0,54,0.00,,---,0.00,VWS V14.00,2013-03-16 17:07:00,
2013-03-16 13:12:00,38.1,23.8,29.83,ESE,108,0.0,5.0,56,0.00,,---,0.00,VWS V14.00,2013-03-16 17:12:00,
2013-03-16 13:17:00,38.0,23.7,29.83,ESE,108,0.0,5.0,56,0.00,,---,0.00,VWS V14.00,2013-03-16 17:17:00,
2013-03-16 13:22:00,37.9,23.6,29.83,ESE,108,0.0,5.0,56,0.00,,---,0.00,VWS V14.00,2013-03-16 17:22:00,
2013-03-16 13:27:00,37.9,26.1,29.83,South,171,6.0,7.0,62,0.00,,---,0.00,VWS V14.00,2013-03-16 17:27:00,
2013-03-16 13:32:00,37.5,27.5,29.83,SSE,160,2.0,7.0,67,0.00,,---,0.00,VWS V14.00,2013-03-16 17:32:00,
2013-03-16 13:37:00,37.1,27.5,29.83,South,170,0.0,7.0,68,0.00,,---,0.00,VWS V14.00,2013-03-16 17:37:00,
2013-03-16 13:42:00,36.7,27.1,29.83,South,170,0.0,7.0,68,0.00,,---,0.00,VWS V14.00,2013-03-16 17:42:00,
2013-03-16 13:47:00,36.2,27.4,29.83,South,170,0.0,7.0,70,0.00,,---,0.00,VWS V14.00,2013-03-16 17:47:00,
2013-03-16 13:52:00,36.0,27.5,29.82,South,170,0.0,7.0,71,0.00,,---,0.00,VWS V14.00,2013-03-16 17:52:00,
2013-03-16 13:57:00,35.7,27.6,29.83,South,170,0.0,0.0,72,0.00,,---,0.00,VWS V14.00,2013-03-16 17:57:00,
2013-03-16 14:02:00,35.1,27.7,29.83,South,170,0.0,0.0,74,0.00,,---,0.00,VWS V14.00,2013-03-16 18:02:00,
2013-03-16 14:07:00,34.8,27.7,29.83,South,170,0.0,0.0,75,0.00,,---,0.00,VWS V14.00,2013-03-16 18:07:00,
2013-03-16 14:12:00,34.5,28.0,29.83,South,170,0.0,0.0,77,0.00,,---,0.00,VWS V14.00,2013-03-16 18:12:00,
2013-03-16 14:17:00,34.1,28.3,29.83,South,170,2.0,2.0,79,0.00,,---,0.00,VWS V14.00,2013-03-16 18:17:00,
2013-03-16 14:22:00,33.7,28.2,29.84,South,170,2.0,4.0,80,0.00,,---,0.00,VWS V14.00,2013-03-16 18:22:00,
2013-03-16 14:27:00,33.2,28.3,29.84,South,171,0.0,2.0,82,0.00,,---,0.00,VWS V14.00,2013-03-16 18:27:00,
2013-03-16 14:32:00,33.0,28.4,29.83,South,170,0.0,2.0,83,0.00,,---,0.00,VWS V14.00,2013-03-16 18:32:00,
2013-03-16 14:37:00,32.9,28.6,29.83,South,170,0.0,2.0,84,0.00,,---,0.01,VWS V14.00,2013-03-16 18:37:00,
2013-03-16 14:42:00,32.9,28.9,29.83,South,171,0.0,2.0,85,0.00,,---,0.01,VWS V14.00,2013-03-16 18:42:00,
2013-03-16 14:47:00,33.0,29.0,29.82,South,171,0.0,2.0,85,0.00,,---,0.01,VWS V14.00,2013-03-16 18:47:00,
2013-03-16 14:52:00,33.0,29.3,29.82,South,170,0.0,2.0,86,0.00,,---,0.01,VWS V14.00,2013-03-16 18:52:00,
2013-03-16 14:57:00,33.0,29.3,29.82,South,170,0.0,0.0,86,0.00,,---,0.01,VWS V14.00,2013-03-16 18:57:00,
2013-03-16 15:02:00,32.9,29.2,29.81,South,170,0.0,0.0,86,0.00,,---,0.01,VWS V14.00,2013-03-16 19:02:00,
2013-03-16 15:07:00,32.9,29.2,29.81,South,171,0.0,0.0,86,0.00,,---,0.01,VWS V14.00,2013-03-16 19:07:00,
2013-03-16 15:12:00,32.9,29.2,29.80,South,170,0.0,0.0,86,0.00,,---,0.01,VWS V14.00,2013-03-16 19:12:00,
2013-03-16 15:17:00,32.9,29.2,29.81,South,170,0.0,1.0,86,0.00,,---,0.02,VWS V14.00,2013-03-16 19:17:00,
2013-03-16 15:22:00,33.0,29.3,29.80,South,171,0.0,1.0,86,0.00,,---,0.02,VWS V14.00,2013-03-16 19:22:00,
2013-03-16 15:27:00,33.1,29.7,29.80,South,170,0.0,0.0,87,0.07,,---,0.03,VWS V14.00,2013-03-16 19:27:00,
2013-03-16 15:32:00,33.2,29.8,29.81,South,170,0.0,0.0,87,0.06,,---,0.03,VWS V14.00,2013-03-16 19:32:00,
2013-03-16 15:37:00,33.3,29.9,29.81,South,170,0.0,0.0,87,0.04,,---,0.04,VWS V14.00,2013-03-16 19:37:00,
2013-03-16 15:42:00,33.3,29.9,29.81,South,171,0.0,0.0,87,0.04,,---,0.04,VWS V14.00,2013-03-16 19:42:00,
2013-03-16 15:47:00,33.3,29.9,29.80,South,170,1.0,2.0,87,0.04,,---,0.04,VWS V14.00,2013-03-16 19:47:00,
2013-03-16 15:53:00,33.5,30.0,29.80,South,170,0.0,2.0,87,0.04,,---,0.04,VWS V14.00,2013-03-16 19:53:00,
2013-03-16 15:57:00,33.5,30.0,29.80,South,170,0.0,0.0,87,0.00,,---,0.04,VWS V14.00,2013-03-16 19:57:00,
2013-03-16 16:03:00,33.6,30.4,29.80,ESE,113,2.0,5.0,88,0.00,,---,0.04,VWS V14.00,2013-03-16 20:03:00,
2013-03-16 16:08:00,33.7,30.2,29.80,SE,126,5.0,6.0,87,0.00,,---,0.05,VWS V14.00,2013-03-16 20:08:00,
2013-03-16 16:13:00,33.8,30.6,29.80,ESE,117,4.0,6.0,88,0.00,,---,0.05,VWS V14.00,2013-03-16 20:13:00,
2013-03-16 16:18:00,33.8,32.3,29.80,ESE,109,2.0,6.0,94,0.00,,---,0.05,VWS V14.00,2013-03-16 20:18:00,
2013-03-16 16:23:00,33.7,30.2,29.80,East,97,2.0,6.0,87,0.00,,---,0.05,VWS V14.00,2013-03-16 20:23:00,
2013-03-16 16:28:00,33.6,30.1,29.80,East,98,2.0,5.0,87,0.00,,---,0.05,VWS V14.00,2013-03-16 20:28:00,
2013-03-16 16:33:00,33.6,30.1,29.79,ESE,113,4.0,5.0,87,0.00,,---,0.06,VWS V14.00,2013-03-16 20:33:00,
2013-03-16 16:38:00,33.6,30.4,29.79,East,90,0.0,5.0,88,0.00,,---,0.06,VWS V14.00,2013-03-16 20:38:00,
2013-03-16 16:43:00,33.6,30.1,29.79,East,90,2.0,5.0,87,0.00,,---,0.06,VWS V14.00,2013-03-16 20:43:00,
2013-03-16 16:48:00,33.6,30.4,29.79,East,90,0.0,5.0,88,0.00,,---,0.06,VWS V14.00,2013-03-16 20:48:00,
2013-03-16 16:53:00,33.6,30.4,29.79,East,90,4.0,5.0,88,0.00,,---,0.06,VWS V14.00,2013-03-16 20:53:00,
2013-03-16 16:58:00,33.7,30.5,29.79,ESE,105,1.0,5.0,88,0.00,,---,0.06,VWS V14.00,2013-03-16 20:58:00,
2013-03-16 17:03:00,33.6,30.4,29.80,ESE,105,1.0,5.0,88,0.00,,---,0.06,VWS V14.00,2013-03-16 21:03:00,
2013-03-16 17:08:00,33.7,30.5,29.80,ESE,104,1.0,5.0,88,0.00,,---,0.06,VWS V14.00,2013-03-16 21:08:00,
2013-03-16 17:13:00,33.5,30.0,29.80,ESE,104,0.0,5.0,87,0.00,,---,0.06,VWS V14.00,2013-03-16 21:13:00,
2013-03-16 17:18:00,33.4,30.0,29.79,ESE,109,2.0,5.0,87,0.00,,---,0.06,VWS V14.00,2013-03-16 21:18:00,
2013-03-16 17:23:00,33.4,30.2,29.79,ESE,110,4.0,7.0,88,0.00,,---,0.06,VWS V14.00,2013-03-16 21:23:00,
2013-03-16 17:28:00,33.4,30.2,29.80,ESE,110,0.0,5.0,88,0.00,,---,0.06,VWS V14.00,2013-03-16 21:28:00,
2013-03-16 17:33:00,33.3,29.9,29.80,ESE,110,2.0,5.0,87,0.00,,---,0.06,VWS V14.00,2013-03-16 21:33:00,
2013-03-16 17:38:00,33.2,29.8,29.80,ESE,110,4.0,5.0,87,0.00,,---,0.06,VWS V14.00,2013-03-16 21:38:00,
2013-03-16 17:43:00,33.2,30.0,29.80,ESE,103,5.0,6.0,88,0.00,,---,0.06,VWS V14.00,2013-03-16 21:43:00,
2013-03-16 17:48:00,33.1,29.9,29.81,ESE,103,2.0,6.0,88,0.00,,---,0.06,VWS V14.00,2013-03-16 21:48:00,
2013-03-16 17:53:00,33.1,29.7,29.80,ESE,103,1.0,6.0,87,0.00,,---,0.06,VWS V14.00,2013-03-16 21:53:00,
2013-03-16 17:58:00,33.0,29.6,29.81,ESE,103,0.0,0.0,87,0.00,,---,0.06,VWS V14.00,2013-03-16 21:58:00,
2013-03-16 18:03:00,32.8,29.4,29.81,ESE,103,0.0,2.0,87,0.00,,---,0.06,VWS V14.00,2013-03-16 22:03:00,
2013-03-16 18:08:00,32.8,29.4,29.80,ESE,103,0.0,2.0,87,0.00,,---,0.06,VWS V14.00,2013-03-16 22:08:00,
2013-03-16 18:13:00,32.6,29.5,29.81,ESE,103,0.0,2.0,88,0.00,,---,0.06,VWS V14.00,2013-03-16 22:13:00,
2013-03-16 18:18:00,32.5,29.4,29.80,East,94,2.0,4.0,88,0.00,,---,0.06,VWS V14.00,2013-03-16 22:18:00,
2013-03-16 18:23:00,32.4,29.2,29.80,East,94,0.0,4.0,88,0.00,,---,0.06,VWS V14.00,2013-03-16 22:23:00,
2013-03-16 18:28:00,32.3,29.1,29.80,East,94,0.0,0.0,88,0.00,,---,0.06,VWS V14.00,2013-03-16 22:28:00,
2013-03-16 18:33:00,32.1,29.0,29.81,East,94,0.0,2.0,88,0.00,,---,0.06,VWS V14.00,2013-03-16 22:33:00,
2013-03-16 18:38:00,32.0,28.9,29.81,East,94,2.0,2.0,88,0.00,,---,0.06,VWS V14.00,2013-03-16 22:38:00,
2013-03-16 18:43:00,32.0,29.1,29.81,ENE,73,0.0,4.0,89,0.00,,---,0.06,VWS V14.00,2013-03-16 22:43:00,
2013-03-16 18:48:00,32.0,29.1,29.81,ENE,73,0.0,4.0,89,0.00,,---,0.06,VWS V14.00,2013-03-16 22:48:00,
2013-03-16 18:53:00,32.0,29.1,29.81,ENE,73,0.0,4.0,89,0.00,,---,0.06,VWS V14.00,2013-03-16 22:53:00,
2013-03-16 18:58:00,32.0,29.1,29.81,ENE,73,0.0,2.0,89,0.00,,---,0.06,VWS V14.00,2013-03-16 22:58:00,
2013-03-16 19:03:00,32.1,29.2,29.82,ENE,73,0.0,2.0,89,0.00,,---,0.06,VWS V14.00,2013-03-16 23:03:00,
2013-03-16 19:08:00,32.1,29.2,29.82,ENE,73,0.0,2.0,89,0.00,,---,0.06,VWS V14.00,2013-03-16 23:08:00,
2013-03-16 19:13:00,32.1,29.2,29.82,ENE,73,0.0,2.0,89,0.00,,---,0.06,VWS V14.00,2013-03-16 23:13:00,
2013-03-16 19:18:00,32.1,29.2,29.82,ENE,73,0.0,3.0,89,0.00,,---,0.06,VWS V14.00,2013-03-16 23:18:00,
2013-03-16 19:23:00,32.1,29.2,29.82,ENE,73,0.0,3.0,89,0.00,,---,0.06,VWS V14.00,2013-03-16 23:23:00,
2013-03-16 19:28:00,32.1,29.0,29.82,ENE,73,0.0,0.0,88,0.00,,---,0.06,VWS V14.00,2013-03-16 23:28:00,
2013-03-16 19:33:00,32.1,29.0,29.82,ENE,73,0.0,0.0,88,0.00,,---,0.06,VWS V14.00,2013-03-16 23:33:00,
2013-03-16 19:39:00,32.1,29.0,29.83,ENE,73,0.0,0.0,88,0.00,,---,0.06,VWS V14.00,2013-03-16 23:39:00,
2013-03-16 19:44:00,32.1,29.0,29.84,ENE,73,0.0,0.0,88,0.00,,---,0.06,VWS V14.00,2013-03-16 23:44:00,
2013-03-16 19:49:00,32.2,29.0,29.84,ENE,73,0.0,0.0,88,0.00,,---,0.06,VWS V14.00,2013-03-16 23:49:00,
2013-03-16 19:54:00,32.2,28.8,29.84,ENE,73,0.0,0.0,87,0.00,,---,0.06,VWS V14.00,2013-03-16 23:54:00,
2013-03-16 19:59:00,32.2,28.8,29.85,ENE,73,0.0,1.0,87,0.00,,---,0.06,VWS V14.00,2013-03-16 23:59:00,
2013-03-16 20:04:00,32.2,28.8,29.85,ENE,73,0.0,1.0,87,0.00,,---,0.06,VWS V14.00,2013-03-17 00:04:00,
2013-03-16 20:09:00,32.2,28.8,29.85,ENE,73,0.0,1.0,87,0.00,,---,0.06,VWS V14.00,2013-03-17 00:09:00,
2013-03-16 20:14:00,32.3,28.9,29.85,ENE,73,0.0,1.0,87,0.00,,---,0.06,VWS V14.00,2013-03-17 00:14:00,
2013-03-16 20:19:00,32.3,28.9,29.85,ENE,73,2.0,2.0,87,0.00,,---,0.06,VWS V14.00,2013-03-17 00:19:00,
2013-03-16 20:24:00,32.4,28.7,29.85,ENE,73,0.0,3.0,86,0.00,,---,0.06,VWS V14.00,2013-03-17 00:24:00,
2013-03-16 20:29:00,32.4,28.7,29.85,ENE,73,0.0,2.0,86,0.00,,---,0.06,VWS V14.00,2013-03-17 00:29:00,
2013-03-16 20:34:00,32.4,28.7,29.85,ENE,73,0.0,2.0,86,0.00,,---,0.06,VWS V14.00,2013-03-17 00:34:00,
2013-03-16 20:39:00,32.4,28.7,29.85,ENE,73,1.0,2.0,86,0.00,,---,0.06,VWS V14.00,2013-03-17 00:39:00,
2013-03-16 20:44:00,32.5,28.8,29.86,ENE,73,0.0,3.0,86,0.00,,---,0.06,VWS V14.00,2013-03-17 00:44:00,
2013-03-16 20:49:00,32.5,28.8,29.86,ENE,73,1.0,3.0,86,0.00,,---,0.06,VWS V14.00,2013-03-17 00:49:00,
2013-03-16 20:54:00,32.5,28.8,29.86,ENE,73,0.0,3.0,86,0.00,,---,0.06,VWS V14.00,2013-03-17 00:54:00,
2013-03-16 20:59:00,32.5,28.8,29.86,ENE,73,0.0,0.0,86,0.00,,---,0.06,VWS V14.00,2013-03-17 00:59:00,
2013-03-16 21:04:00,32.5,29.1,29.86,ENE,73,0.0,0.0,87,0.00,,---,0.06,VWS V14.00,2013-03-17 01:04:00,
2013-03-16 21:09:00,32.5,29.1,29.87,ENE,73,0.0,0.0,87,0.00,,---,0.06,VWS V14.00,2013-03-17 01:09:00,
2013-03-16 21:14:00,32.5,28.8,29.87,ENE,73,0.0,0.0,86,0.00,,---,0.06,VWS V14.00,2013-03-17 01:14:00,
2013-03-16 21:19:00,32.5,29.1,29.87,ENE,73,0.0,0.0,87,0.00,,---,0.06,VWS V14.00,2013-03-17 01:19:00,
2013-03-16 21:24:00,32.5,29.1,29.87,ENE,73,0.0,0.0,87,0.00,,---,0.06,VWS V14.00,2013-03-17 01:24:00,
2013-03-16 21:29:00,32.5,28.8,29.88,ENE,73,0.0,0.0,86,0.00,,---,0.06,VWS V14.00,2013-03-17 01:29:00,
2013-03-16 21:34:00,32.5,29.1,29.88,ENE,73,0.0,0.0,87,0.00,,---,0.06,VWS V14.00,2013-03-17 01:34:00,
2013-03-16 21:39:00,32.5,28.8,29.88,ENE,73,0.0,0.0,86,0.00,,---,0.06,VWS V14.00,2013-03-17 01:39:00,
2013-03-16 21:44:00,32.5,28.8,29.88,ENE,73,0.0,0.0,86,0.00,,---,0.06,VWS V14.00,2013-03-17 01:44:00,
2013-03-16 21:49:00,32.5,29.1,29.88,ENE,73,0.0,0.0,87,0.00,,---,0.06,VWS V14.00,2013-03-17 01:49:00,
2013-03-16 21:54:00,32.5,28.8,29.88,ENE,73,0.0,0.0,86,0.00,,---,0.06,VWS V14.00,2013-03-17 01:54:00,
2013-03-16 21:59:00,32.5,28.8,29.88,ENE,73,0.0,0.0,86,0.00,,---,0.06,VWS V14.00,2013-03-17 01:59:00,
2013-03-16 22:04:00,32.5,29.1,29.88,ENE,73,0.0,0.0,87,0.00,,---,0.06,VWS V14.00,2013-03-17 02:04:00,
2013-03-16 22:09:00,32.6,29.2,29.88,ENE,73,0.0,0.0,87,0.00,,---,0.06,VWS V14.00,2013-03-17 02:09:00,
2013-03-16 22:14:00,32.6,29.2,29.88,ENE,73,0.0,0.0,87,0.00,,---,0.06,VWS V14.00,2013-03-17 02:14:00,
2013-03-16 22:19:00,32.6,29.2,29.89,ENE,73,0.0,0.0,87,0.00,,---,0.06,VWS V14.00,2013-03-17 02:19:00,
2013-03-16 22:24:00,32.6,29.2,29.89,ENE,73,0.0,0.0,87,0.00,,---,0.06,VWS V14.00,2013-03-17 02:24:00,
2013-03-16 22:29:00,32.7,29.3,29.89,ENE,73,0.0,0.0,87,0.00,,---,0.06,VWS V14.00,2013-03-17 02:29:00,
2013-03-16 22:35:00,32.7,29.3,29.90,ENE,73,0.0,0.0,87,0.00,,---,0.06,VWS V14.00,2013-03-17 02:35:00,
2013-03-16 22:40:00,32.8,29.6,29.90,ENE,73,0.0,0.0,88,0.00,,---,0.06,VWS V14.00,2013-03-17 02:40:00,
2013-03-16 22:45:00,32.8,29.6,29.90,ENE,73,0.0,0.0,88,0.00,,---,0.06,VWS V14.00,2013-03-17 02:45:00,
2013-03-16 22:50:00,32.8,29.6,29.90,ENE,73,0.0,0.0,88,0.00,,---,0.06,VWS V14.00,2013-03-17 02:50:00,
2013-03-16 22:55:00,32.9,29.7,29.90,ENE,73,0.0,0.0,88,0.00,,---,0.06,VWS V14.00,2013-03-17 02:55:00,
2013-03-16 23:00:00,32.9,29.7,29.90,ENE,73,0.0,0.0,88,0.00,,---,0.06,VWS V14.00,2013-03-17 03:00:00,
2013-03-16 23:05:00,32.8,29.6,29.90,ENE,73,0.0,0.0,88,0.00,,---,0.06,VWS V14.00,2013-03-17 03:05:00,
2013-03-16 23:10:00,32.8,29.6,29.90,ENE,73,0.0,0.0,88,0.00,,---,0.06,VWS V14.00,2013-03-17 03:10:00,
2013-03-16 23:15:00,32.8,29.6,29.90,ENE,73,0.0,0.0,88,0.00,,---,0.06,VWS V14.00,2013-03-17 03:15:00,
2013-03-16 23:20:00,32.9,29.7,29.90,ENE,73,0.0,0.0,88,0.00,,---,0.06,VWS V14.00,2013-03-17 03:20:00,
2013-03-16 23:25:00,32.8,29.6,29.91,ENE,73,0.0,0.0,88,0.00,,---,0.06,VWS V14.00,2013-03-17 03:25:00,
2013-03-16 23:30:00,32.9,29.7,29.91,ENE,73,0.0,0.0,88,0.00,,---,0.06,VWS V14.00,2013-03-17 03:30:00,
2013-03-16 23:35:00,32.8,29.6,29.91,ENE,73,0.0,0.0,88,0.00,,---,0.06,VWS V14.00,2013-03-17 03:35:00,
2013-03-16 23:40:00,32.9,29.7,29.91,ENE,73,0.0,0.0,88,0.00,,---,0.06,VWS V14.00,2013-03-17 03:40:00,
2013-03-16 23:45:00,32.9,29.7,29.91,ENE,73,0.0,0.0,88,0.00,,---,0.06,VWS V14.00,2013-03-17 03:45:00,
2013-03-16 23:50:00,32.9,29.7,29.91,ENE,73,0.0,0.0,88,0.00,,---,0.06,VWS V14.00,2013-03-17 03:50:00,
2013-03-16 23:55:00,32.9,29.7,29.91,ENE,73,0.0,0.0,88,0.00,,---,0.06,VWS V14.00,2013-03-17 03:55:00,